Weather observations for the past three days for
Nenana Municipal Airport
Metric (Imperial)
Date Time (akdt) Wind (kph) Vis. (km) Weather Sky Cond. Temperature (ºC) Relative Humidity Wind Chill (°C) Heat Index (°C) Pressure Precipitation (cm)
Air Dwpt 6 hour altimeter (cm) sea level (mb) 1 hr 3 hr 6 hr
Max. Min.
24 19:53 Vrbl 6 16.09 Fair CLR 14.4 5.6 56% 74.98 1000.1
24 18:53 Vrbl 9 16.09 Partly Cloudy FEW033 SCT043 15 5.6 54% 74.98 1000.2
24 17:53 N 13 16.09 Partly Cloudy FEW033 FEW041 SCT055 15.6 4.4 48% 75.01 1000.5
24 16:53 Vrbl 9 16.09 Mostly Cloudy BKN037 15.6 5 50% 75.03 1000.9
24 15:53 Calm 16.09 Overcast SCT033 OVC044 13.9 4.4 15.6 10 53% 75.08 1001.5
24 14:53 NW 11 16.09 Overcast BKN027 BKN035 OVC110 13.9 5.6 58% 75.11 1001.9
24 13:53 N 13 16.09 Overcast SCT023 OVC080 12.8 6.1 64% 75.16 1002.6
24 12:53 Vrbl 6 16.09 Overcast OVC026 11.1 6.1 72% 75.21 1003.3
24 11:53 N 6 16.09 Overcast SCT027 OVC035 10.6 6.1 74% 75.23 1003.8
24 10:53 NW 9 16.09 Overcast SCT040 OVC050 11.1 5 66% 75.26 1004.1
24 09:53 Calm 16.09 Overcast BKN045 OVC055 10 6.1 10 7.2 77% 75.31 1004.7
24 08:53 Calm 16.09 Light Rain OVC047 9.4 5.6 77% 75.34 1005.1
24 07:53 Calm 16.09 Overcast OVC041 8.9 5.6 80% 75.39 1005.6
24 06:53 Calm 16.09 Overcast OVC047 7.8 6.1 89% 75.41 1005.9
24 05:53 Calm 16.09 Overcast OVC044 7.2 6.1 93% 75.44 1006.5
24 04:53 E 6 16.09 Overcast OVC048 7.2 5 86% 75.46 1006.8
24 03:53 Calm 16.09 Overcast BKN055 OVC070 7.8 5 12.8 7.8 83% 75.46 1006.9
24 02:53 SW 6 16.09 Light Rain BKN060 BKN070 OVC095 8.3 4.4 77% 75.49 1007.1
24 01:53 Calm 16.09 Overcast FEW060 OVC075 8.9 4.4 74% 75.51 1007.5
24 00:53 Calm 16.09 Overcast OVC065 10.6 3.9 64% 75.54 1007.8
23 23:53 Vrbl 6 16.09 Overcast SCT060 BKN080 OVC095 11.1 3.3 59% 75.54 1007.8
23 22:53 Calm 16.09 Overcast BKN065 OVC075 12.2 3.3 55% 75.57 1008.1
23 21:53 SW 7 16.09 Mostly Cloudy FEW060 BKN120 12.8 3.3 15.6 12.8 53% 75.57 1008.1
23 20:53 Vrbl 11 16.09 Overcast BKN090 OVC120 13.9 2.8 47% 75.59 1008.2
23 19:53 Vrbl 7 16.09 Mostly Cloudy BKN070 13.9 3.3 49% 75.59 1008.5
23 18:53 SW 13 16.09 Fair CLR 14.4 3.3 48% 75.62 1008.7
23 17:53 NW 13 16.09 Mostly Cloudy FEW044 BKN060 14.4 3.3 48% 75.64 1008.9
23 16:53 SW 22 16.09 Partly Cloudy SCT065 15 3.9 48% 75.64 1009.0
23 15:53 W 11 16.09 Overcast BKN047 OVC075 13.9 3.9 15.6 10 51% 75.67 1009.5
23 14:53 SW 19 16.09 Mostly Cloudy FEW041 BKN050 14.4 3.3 48% 75.67 1009.5
23 12:53 Vrbl 9 16.09 Partly Cloudy SCT036 12.8 3.9 55% 75.74 1010.4
23 11:53 Vrbl 7 16.09 Overcast BKN048 OVC060 10.6 5 69% 75.77 1010.8
23 10:53 W 9 16.09 Overcast FEW026 OVC050 10 3.3 63% 9 75.77 1010.9
23 09:53 Vrbl 9 16.09 Mostly Cloudy BKN065 10 3.3 10 5.6 63% 9 75.77 1010.9
23 08:53 Calm 16.09 Mostly Cloudy BKN060 8.9 3.3 68% 75.79 1011.0
23 07:53 Calm 16.09 Fair CLR 7.8 3.3 73% 75.79 1011.0
23 06:53 Vrbl 11 16.09 Fair CLR 6.7 3.3 79% 5 75.77 1010.7
23 05:53 SW 6 16.09 Fair CLR 6.1 3.3 82% 75.74 1010.5
23 04:53 Vrbl 6 16.09 Partly Cloudy SCT120 6.1 3.3 82% 75.74 1010.3
23 03:53 Calm 16.09 Mostly Cloudy SCT050 BKN120 6.7 3.3 10.6 6.7 79% 75.72 1010.0
23 02:53 SW 9 16.09 Mostly Cloudy FEW044 BKN120 7.2 2.8 74% 6 75.72 1010.0
23 01:53 Vrbl 11 16.09 A Few Clouds FEW120 7.2 3.3 77% 5 75.69 1009.7
23 00:53 SW 11 16.09 Fair CLR 7.8 3.3 73% 6 75.67 1009.3
22 23:53 SW 7 16.09 Fair CLR 8.3 3.3 71% 7 75.64 1009.0
22 22:53 SW 11 16.09 Fair CLR 9.4 2.8 64% 8 75.59 1008.3
22 21:53 Calm 16.09 Fair CLR 10.6 2.2 17.2 10.6 56% 75.57 1007.8 0.05
22 20:53 NW 7 16.09 Fair CLR 11.1 2.8 57% 75.54 1007.7
22 19:53 NW 15 G 28 16.09 Fair CLR 11.7 2.8 55% 75.51 1007.3
22 18:53 W 15 16.09 Fair CLR 12.8 3.9 55% 75.46 1006.6 0.05
22 17:53 Vrbl 9 16.09 Partly Cloudy SCT110 12.2 5.6 64% 75.44 1006.3 0.05
22 16:53 SW 17 G 39 16.09 Light Rain BKN060 13.3 3.3 51% 75.44 1006.4
22 15:53 SW 13 16.09 Mostly Cloudy SCT065 BKN090 17.2 2.2 17.8 13.3 37% 75.36 1005.3
22 14:53 Vrbl 9 16.09 Overcast OVC085 15.6 1.1 38% 75.31 1004.8
22 13:53 S 7 16.09 Mostly Cloudy BKN080 16.1 -1.1 31% 75.31 1004.6
22 12:53 SW 15 16.09 Overcast OVC075 16.1 -2.2 29% 75.31 1004.5
22 11:53 SW 20 G 31 16.09 Mostly Cloudy BKN075 15.6 -2.2 30% 75.31 1004.7
22 10:53 S 24 G 31 16.09 Mostly Cloudy BKN070 16.1 -1.7 30% 75.34 1004.9
22 09:53 E 11 16.09 Overcast BKN070 OVC080 13.3 0.6 13.9 2.8 42% 75.39 1005.5
22 08:53 NE 7 16.09 Mostly Cloudy BKN070 12.2 0.6 45% 75.41 1005.9
22 07:53 Calm 16.09 Partly Cloudy SCT070 11.7 0.6 47% 75.41 1006.1
22 06:53 Calm 16.09 Fair CLR 9.4 1.1 56% 75.44 1006.3
22 05:53 Calm 16.09 Fair CLR 5 0.6 73% 75.44 1006.4
22 04:53 Calm 16.09 Fair CLR 3.9 -0.6 73% 75.46 1006.6
22 03:53 Calm 16.09 Fair CLR 5.6 0 13.3 4.4 68% 75.49 1007.0
22 02:53 Calm 16.09 A Few Clouds FEW085 7.2 0 61% 75.51 1007.4
22 01:53 Calm 16.09 Overcast OVC075 8.9 0.6 56% 75.51 0.0
22 00:53 S 7 16.09 Overcast OVC060 10.6 0.6 50% 75.51 1007.3
21 23:53 S 17 16.09 Overcast OVC080 11.1 0.6 49% 75.46 1006.7
21 22:53 S 24 G 50 16.09 Mostly Cloudy BKN080 12.2 0.6 45% 75.44 1006.2
21 21:53 S 31 G 56 16.09 Fair CLR 13.3 0.6 17.2 13.3 42% 75.41 1005.8
21 20:53 S 22 G 46 16.09 Fair CLR 15 0.6 38% 75.41 1005.8
Date Time (akdt) Wind (kph) Vis. (km) Weather Sky Cond. Air Dwpt Max. Min. Relative Humidity Wind Chill (°C) Heat Index (°C) altimeter (cm) sea level (mb) 1 hr 3 hr 6 hr
6 hour
Temperature (ºC) Pressure Precipitation (cm)